Time,TemperatureF,DewpointF,PressureIn,WindDirection,WindDirectionDegrees,WindSpeedMPH,WindSpeedGustMPH,Humidity,HourlyPrecipIn,Conditions,Clouds,dailyrainin,SolarRadiationWatts/m^2,SoftwareType,DateUTC
2013-11-03 00:11:00,41.0,39.0,-100.00,SW,222,5.0,20.0,93,0.14,,,0.14,0.000000,,2013-11-03 07:11:00,
2013-11-03 00:22:00,41.0,39.0,-100.00,SW,222,5.0,20.0,93,0.14,,,0.14,0.000000,,2013-11-03 07:22:00,
2013-11-03 00:32:00,41.0,39.0,-100.00,SW,222,5.0,20.0,93,0.14,,,0.14,0.000000,,2013-11-03 07:32:00,
2013-11-03 01:11:00,41.0,39.0,-100.00,SW,236,4.0,11.0,93,0.06,,,0.20,0.000000,,2013-11-03 08:11:00,
2013-11-03 01:21:00,41.0,39.0,-100.00,SW,236,4.0,11.0,93,0.06,,,0.20,0.000000,,2013-11-03 08:21:00,
2013-11-03 01:32:00,41.0,39.0,-100.00,SW,236,4.0,11.0,93,0.06,,,0.20,0.000000,,2013-11-03 08:32:00,
2013-11-03 02:11:00,42.0,41.0,-100.00,SW,215,5.0,11.0,95,0.02,,,0.22,0.000000,,2013-11-03 09:11:00,
2013-11-03 02:21:00,42.0,41.0,-100.00,SW,215,5.0,11.0,95,0.02,,,0.22,0.000000,,2013-11-03 09:21:00,
2013-11-03 02:32:00,42.0,41.0,-100.00,SW,215,5.0,11.0,95,0.02,,,0.22,0.000000,,2013-11-03 09:32:00,
2013-11-03 03:13:00,41.0,40.0,-100.00,SW,234,3.0,11.0,96,0.00,,,0.22,0.000000,,2013-11-03 10:13:00,
2013-11-03 03:22:00,41.0,40.0,-100.00,SW,234,3.0,11.0,96,0.00,,,0.22,0.000000,,2013-11-03 10:22:00,
2013-11-03 03:32:00,41.0,40.0,-100.00,SW,234,3.0,11.0,96,0.00,,,0.22,0.000000,,2013-11-03 10:32:00,
2013-11-03 04:12:00,41.0,39.0,-100.00,SW,223,2.0,7.0,93,0.00,,,-99.99,0.000000,,2013-11-03 11:12:00,
2013-11-03 04:22:00,41.0,39.0,-100.00,SW,223,2.0,7.0,93,0.00,,,-99.99,0.000000,,2013-11-03 11:22:00,
2013-11-03 04:33:00,41.0,39.0,-100.00,SW,223,2.0,7.0,93,0.00,,,-99.99,0.000000,,2013-11-03 11:33:00,
2013-11-03 05:12:00,40.0,38.0,-100.00,WSW,258,4.0,7.0,93,0.00,,,0.22,0.000000,,2013-11-03 12:12:00,
2013-11-03 05:21:00,40.0,38.0,-100.00,WSW,258,4.0,7.0,93,0.00,,,0.22,0.000000,,2013-11-03 12:21:00,
2013-11-03 05:31:00,40.0,38.0,-100.00,WSW,258,4.0,7.0,93,0.00,,,0.22,0.000000,,2013-11-03 12:31:00,
2013-11-03 06:11:00,41.0,39.0,-100.00,WSW,257,4.0,7.0,94,0.00,,,0.22,0.000000,,2013-11-03 13:11:00,
2013-11-03 06:21:00,41.0,39.0,-100.00,WSW,257,4.0,7.0,94,0.00,,,0.22,0.000000,,2013-11-03 13:21:00,
2013-11-03 06:31:00,41.0,39.0,-100.00,WSW,257,4.0,7.0,94,0.00,,,0.22,0.000000,,2013-11-03 13:31:00,
2013-11-03 07:11:00,40.0,38.0,-100.00,West,260,5.0,7.0,93,0.01,,,0.23,0.000000,,2013-11-03 14:11:00,
2013-11-03 07:22:00,40.0,38.0,-100.00,West,260,5.0,7.0,93,0.01,,,0.23,0.000000,,2013-11-03 14:22:00,
2013-11-03 07:32:00,40.0,38.0,-100.00,West,260,5.0,7.0,93,0.01,,,0.23,0.000000,,2013-11-03 14:32:00,
2013-11-03 08:11:00,44.0,39.0,-100.00,WSW,256,4.0,6.0,84,0.00,,,0.23,72.000000,,2013-11-03 15:11:00,
2013-11-03 08:22:00,44.0,39.0,-100.00,WSW,256,4.0,6.0,84,0.00,,,0.23,72.000000,,2013-11-03 15:22:00,
2013-11-03 08:32:00,44.0,39.0,-100.00,WSW,256,4.0,6.0,84,0.00,,,0.23,72.000000,,2013-11-03 15:32:00,
2013-11-03 09:13:00,53.0,42.0,-100.00,WSW,243,4.0,6.0,67,0.00,,,0.23,341.000000,,2013-11-03 16:13:00,
2013-11-03 09:23:00,53.0,42.0,-100.00,WSW,243,4.0,6.0,67,0.00,,,0.23,341.000000,,2013-11-03 16:23:00,
2013-11-03 09:33:00,53.0,42.0,-100.00,WSW,243,4.0,6.0,67,0.00,,,0.23,341.000000,,2013-11-03 16:33:00,
2013-11-03 10:13:00,55.0,43.0,-100.00,SW,232,4.0,8.0,64,0.00,,,0.23,476.000000,,2013-11-03 17:13:00,
2013-11-03 10:22:00,55.0,43.0,-100.00,SW,232,4.0,8.0,64,0.00,,,0.23,476.000000,,2013-11-03 17:22:00,
2013-11-03 10:33:00,55.0,43.0,-100.00,SW,232,4.0,8.0,64,0.00,,,0.23,476.000000,,2013-11-03 17:33:00,
2013-11-03 11:11:00,58.0,42.0,-100.00,SW,228,6.0,12.0,56,0.00,,,0.23,737.000000,,2013-11-03 18:11:00,
2013-11-03 11:23:00,58.0,42.0,-100.00,SW,228,6.0,12.0,56,0.00,,,0.23,737.000000,,2013-11-03 18:23:00,
2013-11-03 11:32:00,58.0,42.0,-100.00,SW,228,6.0,12.0,56,0.00,,,0.23,737.000000,,2013-11-03 18:32:00,
2013-11-03 12:11:00,59.0,42.0,-100.00,SW,234,4.0,10.0,54,0.00,,,-99.99,554.000000,,2013-11-03 19:11:00,
2013-11-03 12:21:00,59.0,42.0,-100.00,SW,234,4.0,10.0,54,0.00,,,-99.99,554.000000,,2013-11-03 19:21:00,
2013-11-03 12:32:00,59.0,42.0,-100.00,SW,234,4.0,10.0,54,0.00,,,-99.99,554.000000,,2013-11-03 19:32:00,
2013-11-03 13:11:00,60.0,43.0,-100.00,SW,223,7.0,13.0,53,0.00,,,0.23,677.000000,,2013-11-03 20:11:00,
2013-11-03 13:22:00,60.0,43.0,-100.00,SW,223,7.0,13.0,53,0.00,,,0.23,677.000000,,2013-11-03 20:22:00,
2013-11-03 13:32:00,60.0,43.0,-100.00,SW,223,7.0,13.0,53,0.00,,,0.23,677.000000,,2013-11-03 20:32:00,
2013-11-03 14:11:00,59.0,42.0,-100.00,SSW,213,9.0,20.0,54,0.00,,,0.23,825.000000,,2013-11-03 21:11:00,
2013-11-03 14:21:00,59.0,42.0,-100.00,SSW,213,9.0,20.0,54,0.00,,,0.23,825.000000,,2013-11-03 21:21:00,
2013-11-03 14:34:00,59.0,42.0,-100.00,SSW,213,9.0,20.0,54,0.00,,,0.23,825.000000,,2013-11-03 21:34:00,
2013-11-03 15:12:00,61.0,42.0,-100.00,SW,226,7.0,17.0,49,0.00,,,0.23,709.000000,,2013-11-03 22:12:00,
2013-11-03 15:22:00,61.0,42.0,-100.00,SW,226,7.0,17.0,49,0.00,,,0.23,709.000000,,2013-11-03 22:22:00,
2013-11-03 15:33:00,61.0,42.0,-100.00,SW,226,7.0,17.0,49,0.00,,,0.23,709.000000,,2013-11-03 22:33:00,
2013-11-03 16:12:00,58.0,40.0,-100.00,SW,222,7.0,16.0,51,0.00,,,0.23,454.000000,,2013-11-03 23:12:00,
2013-11-03 16:23:00,58.0,40.0,-100.00,SW,222,7.0,16.0,51,0.00,,,0.23,454.000000,,2013-11-03 23:23:00,
2013-11-03 16:33:00,58.0,40.0,-100.00,SW,222,7.0,16.0,51,0.00,,,0.23,454.000000,,2013-11-03 23:33:00,
2013-11-03 17:11:00,55.0,39.0,-100.00,SW,230,5.0,13.0,55,0.00,,,0.23,254.000000,,2013-11-04 00:11:00,
2013-11-03 17:22:00,55.0,39.0,-100.00,SW,230,5.0,13.0,55,0.00,,,0.23,254.000000,,2013-11-04 00:22:00,
2013-11-03 17:32:00,55.0,39.0,-100.00,SW,230,5.0,13.0,55,0.00,,,0.23,254.000000,,2013-11-04 00:32:00,
2013-11-03 18:11:00,48.0,35.0,-100.00,SW,232,6.0,13.0,61,0.00,,,0.23,28.000000,,2013-11-04 01:11:00,
2013-11-03 18:22:00,48.0,35.0,-100.00,SW,232,6.0,13.0,61,0.00,,,0.23,28.000000,,2013-11-04 01:22:00,
2013-11-03 18:32:00,48.0,35.0,-100.00,SW,232,6.0,13.0,61,0.00,,,0.23,28.000000,,2013-11-04 01:32:00,
2013-11-03 19:12:00,45.0,35.0,-100.00,SW,236,6.0,11.0,67,0.00,,,0.23,0.000000,,2013-11-04 02:12:00,
2013-11-03 19:21:00,45.0,35.0,-100.00,SW,236,6.0,11.0,67,0.00,,,0.23,0.000000,,2013-11-04 02:21:00,
2013-11-03 19:32:00,45.0,35.0,-100.00,SW,236,6.0,11.0,67,0.00,,,0.23,0.000000,,2013-11-04 02:32:00,
2013-11-03 20:11:00,43.0,33.0,-100.00,WSW,250,6.0,11.0,68,0.00,,,0.23,0.000000,,2013-11-04 03:11:00,
2013-11-03 20:21:00,43.0,33.0,-100.00,WSW,250,6.0,11.0,68,0.00,,,0.23,0.000000,,2013-11-04 03:21:00,
2013-11-03 20:34:00,43.0,33.0,-100.00,WSW,250,6.0,11.0,68,0.00,,,0.23,0.000000,,2013-11-04 03:34:00,
2013-11-03 21:13:00,42.0,33.0,-100.00,WSW,255,6.0,11.0,69,0.00,,,0.23,0.000000,,2013-11-04 04:13:00,
2013-11-03 21:23:00,42.0,33.0,-100.00,WSW,255,6.0,11.0,69,0.00,,,0.23,0.000000,,2013-11-04 04:23:00,
2013-11-03 21:34:00,42.0,33.0,-100.00,WSW,255,6.0,11.0,69,0.00,,,0.23,0.000000,,2013-11-04 04:34:00,
2013-11-03 22:13:00,42.0,34.0,-100.00,WSW,254,6.0,11.0,73,0.00,,,0.23,0.000000,,2013-11-04 05:13:00,
2013-11-03 22:23:00,42.0,34.0,-100.00,WSW,254,6.0,11.0,73,0.00,,,0.23,0.000000,,2013-11-04 05:23:00,
2013-11-03 22:34:00,42.0,34.0,-100.00,WSW,254,6.0,11.0,73,0.00,,,0.23,0.000000,,2013-11-04 05:34:00,
2013-11-03 23:12:00,41.0,34.0,-100.00,West,259,5.0,9.0,76,0.00,,,0.23,0.000000,,2013-11-04 06:12:00,
2013-11-03 23:23:00,41.0,34.0,-100.00,West,259,5.0,9.0,76,0.00,,,0.23,0.000000,,2013-11-04 06:23:00,
2013-11-03 23:32:00,41.0,34.0,-100.00,West,259,5.0,9.0,76,0.00,,,0.23,0.000000,,2013-11-04 06:32:00,